Wind_Speed
55 56 57 59 60 61 62 64 65 64 63 63 65 66 68 69 70 71 72 73 74 75 76 77 77 77 77 77 77 78 78 79 79 80 81 81 82 82
57 58 59 60 61 63 64 65 67 68 68 67 68 69 70 71 72 73 73 74 74 75 75 75 75 75 75 75 74 74 74 75 76 76 77 78 78 79
59 60 60 62 63 64 66 67 68 69 70 69 70 71 73 74 74 75 75 75 74 73 72 72 71 71 70 70 69 69 69 69 70 71 72 73 73 75
60 61 62 64 65 66 67 68 69 71 72 71 71 73 74 75 76 76 76 75 73 71 70 68 67 66 65 64 64 63 63 63 63 64 65 66 67 68
62 63 64 66 66 67 68 69 71 72 74 74 74 75 76 77 76 75 74 72 71 69 67 65 64 62 60 59 58 57 57 57 58 58 59 59 60 61
64 65 66 67 68 69 70 71 73 74 76 77 77 77 76 76 75 73 70 68 66 64 63 61 59 56 54 53 52 52 52 52 52 53 54 54 55 55
65 67 68 69 70 71 72 73 75 76 77 78 78 77 75 73 71 69 66 63 60 59 57 55 53 51 51 50 49 49 49 48 48 48 49 49 50 51
68 69 70 71 72 73 75 76 78 79 79 79 78 75 72 69 66 63 61 58 54 53 52 49 49 47 47 46 45 45 45 44 44 44 44 44 45 46
71 72 73 74 75 76 77 78 78 79 79 78 75 71 67 63 61 58 55 53 50 48 47 45 45 44 43 43 42 41 40 40 39 39 40 40 41 42
74 75 75 76 77 78 78 77 76 76 75 73 69 65 61 58 56 53 51 48 46 45 44 41 40 40 40 40 38 37 37 36 35 35 36 36 37 38
75 76 76 77 77 78 77 76 74 72 69 66 63 59 56 53 52 50 47 45 42 40 40 39 37 37 36 36 35 35 34 34 33 33 33 33 33 34
76 76 76 77 76 76 76 75 72 68 64 61 57 54 52 50 48 46 44 42 39 36 36 36 34 34 32 32 33 33 33 32 32 31 31 31 31 31
76 76 76 76 76 75 75 73 69 64 59 56 52 50 48 46 45 44 42 39 37 34 33 33 31 31 30 29 30 32 31 30 29 29 29 29 29 28
78 76 75 75 74 73 71 68 64 59 55 52 48 46 44 43 41 40 39 37 35 33 31 30 29 29 28 28 28 29 29 28 27 27 26 26 26 26
77 76 75 74 72 70 67 62 58 54 51 48 45 43 41 39 38 37 36 35 33 31 30 29 28 27 27 26 27 27 27 26 25 25 24 24 24 24
76 75 73 71 69 65 60 56 52 49 47 44 41 40 38 36 35 34 33 32 30 29 29 28 27 26 26 25 25 25 25 24 23 22 22 22 22 22
75 73 70 67 63 58 53 49 47 44 43 41 38 36 35 33 32 31 31 30 29 28 28 27 26 25 25 24 24 24 24 23 23 22 21 21 21 21
73 70 66 61 56 52 48 44 42 41 40 38 36 34 32 31 30 29 29 28 27 27 27 26 26 25 24 23 23 23 23 22 22 21 21 21 21 21
69 64 59 54 50 47 43 40 38 37 36 35 33 32 30 29 28 28 28 27 26 26 26 26 26 24 23 23 23 23 23 22 21 21 21 21 21 21
62 58 53 49 46 42 40 37 36 34 33 32 31 30 29 28 27 27 26 26 26 25 26 26 26 25 24 23 23 23 23 23 22 21 20 20 21 21
55 51 48 45 41 38 36 34 33 32 31 30 29 29 28 27 26 26 25 25 25 25 25 25 25 25 24 23 23 23 24 23 23 22 21 21 21 21
50 46 43 41 38 36 34 33 31 31 30 29 28 27 26 26 25 25 25 24 24 24 24 24 24 24 24 24 23 24 24 24 24 23 23 22 22 22
46 43 40 37 35 34 32 31 30 29 29 28 27 26 26 25 25 25 25 25 24 24 24 24 24 24 24 24 24 24 24 24 24 24 24 23 23 23
Wind_Direction
299 299 298 298 298 298 297 297 296 295 294 293 293 292 292 291 291 290 289 288 287 285 284 282 281 279 277 275 274 272 270 269 267 266 265 263 262 260
300 299 299 299 299 298 298 298 298 297 296 296 295 294 294 293 292 292 291 290 289 287 286 284 282 280 278 276 274 273 271 269 268 266 265 264 262 261
300 300 300 299 299 299 299 299 298 298 297 297 297 296 296 295 294 294 293 291 290 289 287 285 283 281 279 277 275 273 271 269 268 266 265 263 262 260
301 301 301 300 300 300 299 299 299 298 298 298 298 297 297 296 295 294 293 292 291 289 287 286 284 281 279 277 275 273 271 269 268 266 265 263 261 260
302 301 301 301 301 300 300 300 299 299 299 299 299 298 297 297 295 294 293 291 290 289 288 286 284 281 279 277 275 272 271 269 268 266 265 263 261 259
303 302 302 302 301 301 301 300 300 300 300 300 300 299 298 297 295 293 292 290 289 288 287 285 283 281 279 276 274 272 271 269 268 266 264 263 261 259
303 303 303 302 302 301 301 301 301 301 301 301 300 299 298 296 294 293 291 290 289 287 285 284 282 281 278 276 274 272 271 269 268 266 264 262 260 258
303 303 303 303 302 302 302 302 302 302 302 301 300 299 297 295 294 292 291 289 288 286 284 283 281 280 278 276 274 273 271 269 267 265 264 262 260 258
304 303 303 303 302 302 302 302 303 303 302 301 300 299 297 295 293 292 290 289 288 285 283 281 280 279 277 275 274 272 270 269 267 265 263 261 260 258
304 304 303 303 303 303 303 303 303 303 301 300 300 298 296 295 293 292 290 289 288 286 283 280 278 278 276 275 273 271 269 268 267 266 265 263 260 258
304 304 304 304 304 303 303 303 303 302 300 299 298 297 295 294 292 291 290 289 288 285 283 281 278 276 275 273 271 269 268 268 266 265 265 264 261 259
305 305 305 304 304 304 304 304 303 301 299 298 297 296 294 293 292 291 290 289 287 284 282 281 279 275 272 271 270 269 268 268 266 264 264 262 262 260
305 305 305 304 304 304 303 303 302 300 298 297 295 294 293 292 290 289 288 287 286 284 281 279 277 274 272 268 268 269 268 268 266 263 263 261 259 257
306 306 305 305 304 304 303 302 300 299 297 296 294 293 292 290 289 287 286 286 285 283 281 278 275 272 271 268 267 267 267 266 264 262 261 259 257 255
306 306 306 305 305 304 303 301 298 297 296 295 293 292 291 289 287 285 284 284 283 281 279 278 275 272 270 268 266 265 265 264 263 261 259 257 254 252
305 306 306 306 305 304 302 299 297 295 294 293 292 292 291 288 286 284 282 282 281 279 278 276 274 272 270 267 265 263 262 262 261 259 258 255 251 249
306 306 305 305 304 302 300 298 296 294 294 293 291 290 289 287 285 282 281 280 278 277 276 275 273 271 269 266 262 260 260 260 259 258 256 253 250 247
307 307 306 305 304 302 299 297 294 293 292 291 290 289 288 286 284 282 281 279 276 275 274 273 272 270 267 263 260 258 258 258 257 256 254 252 249 246
308 307 307 305 304 302 299 296 294 292 291 289 287 287 286 285 283 281 280 278 276 274 273 271 270 268 265 260 258 257 255 255 254 253 253 250 246 244
308 308 307 305 304 301 298 296 294 292 290 288 287 286 284 283 282 281 280 278 276 274 272 270 268 266 264 260 256 254 252 251 251 251 251 247 244 241
309 308 307 305 303 301 298 296 294 291 290 288 286 285 283 282 281 280 279 278 276 274 272 270 267 264 262 260 257 254 251 249 249 249 249 246 243 240
309 308 306 304 302 300 298 296 294 291 289 287 286 284 282 282 281 279 278 277 275 273 272 270 267 264 261 259 256 253 251 249 248 248 248 246 242 239
309 307 305 303 301 299 297 296 294 292 289 286 285 283 281 281 280 279 278 277 275 272 270 269 267 265 261 258 256 252 250 249 248 247 246 245 242 239
Height
5663 5658 5652 5647 5641 5635 5630 5625 5621 5618 5617 5612 5605 5598 5591 5586 5580 5575 5571 5566 5562 5558 5555 5551 5549 5546 5544 5543 5542 5542 5542 5543 5544 5546 5548 5551 5554 5557
5649 5644 5638 5632 5626 5620 5614 5608 5601 5596 5594 5592 5584 5577 5570 5564 5558 5553 5548 5543 5538 5534 5530 5526 5523 5521 5519 5517 5517 5516 5516 5517 5518 5520 5522 5524 5527 5531
5635 5629 5623 5616 5610 5604 5597 5590 5584 5577 5573 5571 5564 5556 5549 5542 5536 5530 5524 5519 5514 5509 5505 5502 5499 5496 5494 5493 5492 5492 5492 5493 5494 5496 5497 5500 5502 5506
5620 5614 5607 5600 5594 5587 5579 5573 5565 5558 5552 5549 5545 5536 5529 5521 5514 5508 5501 5495 5490 5486 5482 5478 5475 5473 5471 5470 5469 5469 5470 5470 5472 5473 5475 5478 5480 5482
5605 5598 5591 5583 5577 5569 5561 5554 5547 5539 5531 5526 5522 5515 5507 5498 5491 5485 5479 5473 5468 5463 5460 5456 5454 5451 5450 5449 5449 5449 5450 5451 5452 5453 5454 5456 5459 5462
5588 5581 5573 5565 5558 5550 5543 5535 5527 5519 5511 5504 5499 5492 5485 5476 5468 5462 5458 5453 5448 5443 5439 5436 5433 5432 5431 5430 5430 5430 5431 5432 5433 5434 5436 5438 5440 5443
5572 5564 5556 5547 5539 5531 5523 5515 5507 5499 5490 5482 5475 5469 5462 5454 5447 5440 5436 5433 5430 5424 5421 5418 5416 5414 5413 5412 5413 5413 5414 5414 5416 5417 5418 5420 5423 5425
5555 5547 5538 5529 5520 5511 5503 5494 5485 5475 5467 5459 5453 5446 5440 5432 5426 5421 5416 5414 5412 5408 5404 5403 5399 5399 5397 5396 5396 5397 5397 5398 5400 5401 5403 5404 5407 5409
5536 5528 5519 5510 5500 5491 5483 5474 5464 5453 5444 5436 5430 5424 5418 5412 5406 5403 5399 5396 5394 5391 5388 5388 5385 5384 5382 5382 5382 5382 5383 5384 5385 5387 5389 5390 5392 5394
5517 5507 5498 5490 5479 5469 5462 5454 5445 5435 5424 5415 5409 5404 5398 5393 5388 5385 5382 5380 5379 5376 5373 5373 5372 5370 5369 5368 5368 5369 5370 5371 5373 5374 5376 5377 5379 5381
5498 5487 5477 5468 5459 5448 5439 5432 5426 5416 5406 5397 5391 5385 5381 5376 5372 5369 5367 5365 5365 5363 5359 5359 5359 5358 5357 5357 5356 5357 5358 5360 5362 5363 5364 5366 5367 5369
5479 5468 5457 5446 5437 5427 5417 5410 5403 5396 5388 5382 5375 5370 5365 5361 5357 5354 5353 5351 5350 5350 5348 5346 5346 5345 5347 5347 5346 5346 5348 5349 5351 5352 5354 5355 5356 5358
5458 5448 5438 5426 5416 5406 5396 5388 5381 5375 5370 5365 5360 5356 5351 5347 5344 5342 5340 5338 5338 5337 5336 5335 5335 5335 5335 5337 5337 5337 5337 5339 5341 5342 5343 5345 5347 5349
5435 5426 5416 5406 5396 5386 5377 5369 5362 5356 5352 5348 5345 5341 5338 5335 5332 5329 5328 5326 5326 5325 5325 5324 5325 5325 5326 5327 5327 5328 5328 5330 5331 5333 5334 5336 5338 5340
5412 5404 5394 5384 5375 5366 5358 5350 5344 5339 5335 5332 5330 5327 5324 5322 5319 5318 5316 5315 5315 5315 5314 5314 5315 5316 5316 5317 5318 5319 5320 5321 5322 5324 5325 5327 5329 5332
5392 5383 5374 5364 5355 5346 5340 5333 5328 5324 5320 5318 5316 5314 5312 5310 5308 5306 5306 5305 5305 5305 5304 5305 5305 5306 5307 5308 5309 5310 5311 5313 5314 5316 5318 5320 5322 5324
5371 5363 5355 5346 5337 5330 5323 5318 5314 5310 5307 5305 5303 5301 5300 5298 5297 5296 5296 5295 5296 5296 5295 5295 5296 5297 5298 5299 5301 5302 5303 5305 5306 5308 5310 5312 5315 5317
5349 5341 5334 5326 5319 5313 5308 5304 5301 5297 5295 5293 5291 5290 5289 5288 5287 5286 5286 5286 5286 5286 5287 5287 5287 5289 5290 5291 5293 5294 5296 5297 5299 5301 5303 5305 5308 5311
5330 5322 5315 5309 5303 5298 5294 5291 5288 5286 5283 5281 5280 5279 5278 5278 5277 5277 5276 5276 5277 5277 5278 5278 5279 5280 5282 5283 5285 5286 5288 5290 5291 5294 5296 5298 5301 5304
5313 5306 5300 5294 5289 5285 5281 5279 5276 5274 5272 5271 5270 5269 5268 5268 5268 5267 5267 5267 5268 5268 5269 5269 5270 5272 5273 5275 5277 5279 5280 5282 5284 5287 5289 5291 5294 5298
5298 5292 5286 5281 5277 5273 5270 5267 5265 5264 5262 5261 5260 5259 5259 5258 5258 5258 5259 5259 5259 5260 5260 5261 5262 5263 5265 5267 5269 5271 5272 5275 5277 5280 5282 5285 5288 5291
5285 5279 5274 5269 5265 5262 5259 5257 5255 5254 5252 5251 5250 5250 5249 5249 5249 5250 5250 5250 5250 5251 5252 5252 5253 5255 5257 5259 5261 5263 5265 5267 5270 5272 5275 5279 5281 5285
5272 5267 5262 5258 5255 5252 5249 5247 5246 5244 5243 5242 5241 5241 5240 5240 5241 5241 5241 5241 5242 5243 5243 5244 5245 5247 5248 5250 5252 5254 5257 5259 5262 5265 5268 5271 5274 5278